Regional Weather Roundup
Issued by NWS

Home | Current Version | Previous Version | Text Only | Print | Product List | Glossary Off
Versions: 1 2 3 4 5 6 7 8 9 10 11 12 13 14 15 16 17 18 19 20 21 22 23 24 25 26 27 28 29 30 31 32 33 34 35 36 37 38 39 40 41 42 43 44 45 46 47 48 49 50

756
ASUS43 KDTX 081701
RWRMI
MICHIGAN HOURLY REGIONAL WEATHER ROUNDUP
NATIONAL WEATHER SERVICE DETROIT/PONTIAC MI
1200 PM EST MON FEB 08 2016

NOTE: "FAIR" INDICATES FEW OR NO CLOUDS BELOW 12,000 FEET WITH NO
SIGNIFICANT WEATHER AND/OR OBSTRUCTION TO VISIBILITY.

MIZ047>049-052>055-059>063-066>070-074>076-081>083-081800-
SOUTHEAST LOWER MICHIGAN

CITY           SKY/WX    TMP DP  RH WIND       PRES   REMARKS
ADRIAN         CLOUDY    38  29  70 W10       29.60F WCI  31
ALMA           SUNNY     39  32  75 CALM      29.61S
ANN ARBOR      CLOUDY    38  29  70 W8        29.59F WCI  32
BAD AXE        CLOUDY    39  32  78 CALM      29.60S
CARO           CLOUDY    37  32  81 W6        29.59F WCI  33
DETROIT CITY   CLOUDY    39  29  67 NW5       29.59F
DETROIT        CLOUDY    40  29  64 VRB5      29.60F
FLINT            N/A     40  31  70 MISG      29.60F
GROSSE ILE     CLOUDY    39  30  70 CALM      29.59S
HILLSDALE      CLOUDY    36  29  74 W8        29.59F WCI  30
HOWELL         CLOUDY    37  32  81 W7        29.59F WCI  32

CITY           SKY/WX    TMP DP  RH WIND       PRES   REMARKS
JACKSON        CLOUDY    36  28  73 NW9       29.60F WCI  29
LAMBERTVILLE   PTSUNNY   38  31  74 W7        29.61F WCI  33
LANSING        PTSUNNY   36  29  75 W7        29.61F WCI  30
LAPEER         CLOUDY    38  31  78 NW6       29.58F WCI  33
MASON          CLOUDY    36  31  82 NW6       29.60F WCI  31
MONROE         CLOUDY    39  32  76 W7        29.59F WCI  34
MT. CLEMENS    CLOUDY    40  33  77 NW6       29.57F
PONTIAC        CLOUDY    38  29  70 VRB6      29.57F WCI  33
PORT HOPE        N/A     39  33  79 N3        29.58F
PORT HURON     LGT RAIN  37  36  93 CALM      29.59F
TRI CITIES     MOSUNNY   39  31  72 VRB7      29.61S WCI  34
MIDLAND        PTSUNNY   39  28  66 CALM      29.59F
TROY           CLOUDY    39  30  69 NW5       29.60F
SAGINAW HB     PTSUNNY   39  32  75 NW5       29.60S
$$
MIZ043>046-050>051-056>058-064>065-071>073-077>080-081800-
SOUTHWEST LOWER MICHIGAN

CITY           SKY/WX    TMP DP  RH WIND       PRES   REMARKS
BATTLE CREEK   CLOUDY    35  28  75 SW7       29.62S WCI  29
BENTON HARBOR  CLOUDY    34  31  88 W8        29.63S WCI  27
BIG RAPIDS     SUNNY     36  29  75 W8        29.59S WCI  29
COLDWATER      CLOUDY    38  30  71 W9        29.61S WCI  32
FREMONT        FAIR      35  29  78 E5        29.60S WCI  31
HOLLAND        CLOUDY    39  33  79 S7        29.61F WCI  34
GRAND RAPIDS   PTSUNNY   38  30  73 SW6       29.61F WCI  33
IONIA          CLOUDY    39  29  66 W3        29.60S
KALAMAZOO      CLOUDY    35  28  75 W6        29.62S WCI  30
LUDINGTON      PTSUNNY   36  30  80 CALM      29.61F
MARSHALL       PTSUNNY   36  29  75 CALM      29.60F
MOUNT PLEASANT SUNNY     40  29  65 SW3       29.59F
MUSKEGON       PTSUNNY   41  26  55 SE7       29.60F
SOUTH HAVEN    CLOUDY    35  32  90 SW6       29.62F WCI  30
$$
MIZ016>042-081800-
NORTHERN LOWER MICHIGAN

CITY           SKY/WX    TMP DP  RH WIND       PRES   REMARKS
ALPENA         CLOUDY    38  31  76 CALM      29.60F
BEAVER ISLAND  CLOUDY    37  33  84 W3        29.61S
BELLAIRE       MOSUNNY   37  31  78 CALM      29.61S
CADILLAC       PTSUNNY   35  27  72 SW7       29.57S WCI  30
CHARLEVOIX     CLOUDY    35  32  88 CALM      29.63S
FRANKFORT      CLOUDY    37  31  78 SW3       29.60S
GAYLORD        PTSUNNY   33  30  88 CALM      29.58S FOG
GRAYLING       CLOUDY   N/A N/A N/A CALM      29.59S FOG
HARBOR SPRINGS CLOUDY    38  31  75 CALM      29.60S
HOUGHTON LAKE  MOSUNNY   34  30  85 W3        29.58F
MANISTEE       CLOUDY    37  28  70 S6        29.61S WCI  33
OSCODA         CLOUDY    37  32  84 CALM      29.59F
PELLSTON       MOSUNNY   37  31  78 CALM      29.60F
ROGERS CITY    PTSUNNY   35  30  83 NE6       29.62S WCI  30
TRAVERSE CITY  PTSUNNY   38  31  76 CALM      29.59S
$$
MIZ007>008-015-081800-
EASTERN UPPER MICHIGAN

CITY           SKY/WX    TMP DP  RH WIND       PRES   REMARKS
KINROSS        PTSUNNY   36  36 100 CALM      29.61R
MACKINAC ISLAN SUNNY     37  32  83 CALM      29.60S
NEWBERRY       FOG       34  33  96 W8        29.60R VSB 1/4 WCI  27
S. S. MARIE    CLOUDY    35  32  88 E5        29.61R FOG     WCI  31
$$
MIZ004>006-011>014-085-081800-
CENTRAL UPPER MICHIGAN

CITY           SKY/WX    TMP DP  RH WIND       PRES   REMARKS
MANISTIQUE     CLOUDY    31  27  84 NW14G20   29.62R WCI  21
ESCANABA       CLOUDY    30  23  74 N9G17     29.65R WCI  22
MENOMINEE      CLOUDY    30  27  86 N10G21    29.63R WCI  21
SAWYER-GWINN   CLOUDY    21  18  86 N12       29.65R WCI   9
$$
MIZ001>003-009>011-084-081800-
WESTERN UPPER MICHIGAN

CITY           SKY/WX    TMP DP  RH WIND       PRES   REMARKS
IRON MOUNTAIN  CLOUDY    22  15  75 NW21      29.65R WCI   6
HOUGHTON       LGT SNOW  15   9  76 N14       29.71S VSB 3/4 WCI   0
COPPER HARBOR    N/A     20  16  84 N22       29.71S WCI   3
IRONWOOD       CLOUDY    18  12  79 NW14      29.74S WCI   4
$$

ABBREVIATIONS USED IN REMARKS
   TC - TEMPERATURE IN CELSIUS
  WCI - WIND CHILL INDEX
   HX - HEAT INDEX
  VSB - VISIBILITY





USA.gov is the U.S. government's official web portal to all federal, state and local government web resources and services.